EN

Hourly Weather Dziecmierowo

Today, 31 October, Saturday

Time Temperature Precipitation Wind Pressure Humidity
00:00 +10°C° 0.4 mm 1 mps 756 mmHg 97%
01:00 +9°C° 0.4 mm 0 mps 756 mmHg 96%
02:00 +10°C° 0.4 mm 1 mps 756 mmHg 96%
03:00 +10°C° 0.4 mm 1 mps 757 mmHg 96%
04:00 +10°C° 0.4 mm 1 mps 757 mmHg 96%
05:00 +10°C° 0.1 mm 1 mps 757 mmHg 96%
06:00 +10°C° 0.1 mm 1 mps 758 mmHg 96%
07:00 +10°C° 0.1 mm 1 mps 758 mmHg 95%
08:00 +11°C° 0 mm 1 mps 758 mmHg 92%
09:00 +11°C° 0 mm 1 mps 759 mmHg 89%
10:00 +12°C° 0 mm 2 mps 759 mmHg 85%
11:00 +13°C° 0 mm 2 mps 759 mmHg 82%
12:00 +13°C° 0 mm 2 mps 759 mmHg 79%
13:00 +14°C° 0 mm 2 mps 759 mmHg 76%
14:00 +13°C° 0 mm 2 mps 759 mmHg 78%
15:00 +13°C° 0 mm 2 mps 759 mmHg 80%
16:00 +12°C° 0 mm 2 mps 759 mmHg 83%
17:00 +12°C° 0 mm 2 mps 759 mmHg 85%
18:00 +10°C° 0 mm 2 mps 759 mmHg 87%
19:00 +9°C° 0 mm 3 mps 759 mmHg 89%
20:00 +9°C° 0 mm 3 mps 759 mmHg 89%
21:00 +9°C° 0 mm 3 mps 759 mmHg 89%
22:00 +8°C° 0 mm 3 mps 759 mmHg 90%
23:00 +8°C° 0 mm 3 mps 759 mmHg 89%

Tomorrow, 1 November, Sunday

Time Temperature Precipitation Wind Pressure Humidity
00:00 +8°C° 0 mm 3 mps 759 mmHg 89%
01:00 +7°C° 0 mm 3 mps 759 mmHg 89%
02:00 +6°C° 0 mm 4 mps 758 mmHg 88%
03:00 +6°C° 0 mm 4 mps 758 mmHg 87%
04:00 +6°C° 0 mm 4 mps 757 mmHg 86%
05:00 +6°C° 0 mm 4 mps 757 mmHg 85%
06:00 +6°C° 0 mm 4 mps 757 mmHg 85%
07:00 +6°C° 0 mm 4 mps 757 mmHg 85%
08:00 +7°C° 0 mm 4 mps 757 mmHg 83%
09:00 +8°C° 0 mm 4 mps 756 mmHg 81%
10:00 +10°C° 0 mm 4 mps 756 mmHg 79%
11:00 +11°C° 0 mm 4 mps 756 mmHg 79%
12:00 +12°C° 0 mm 4 mps 755 mmHg 78%
13:00 +13°C° 0 mm 4 mps 755 mmHg 78%
14:00 +13°C° 0.3 mm 4 mps 754 mmHg 82%
15:00 +12°C° 0.3 mm 3 mps 754 mmHg 87%
16:00 +12°C° 0.3 mm 3 mps 754 mmHg 91%
17:00 +12°C° 1.3 mm 3 mps 753 mmHg 92%
18:00 +12°C° 1.3 mm 4 mps 753 mmHg 92%
19:00 +12°C° 1.3 mm 5 mps 753 mmHg 93%
20:00 +12°C° 0.1 mm 5 mps 753 mmHg 92%
21:00 +12°C° 0.1 mm 5 mps 753 mmHg 91%
22:00 +11°C° 0.1 mm 4 mps 753 mmHg 90%
23:00 +12°C° 0.1 mm 4 mps 753 mmHg 90%

Day after tomorrow, 2 November, Monday

Time Temperature Precipitation Wind Pressure Humidity
00:00 +12°C° 0.1 mm 4 mps 752 mmHg 91%
01:00 +12°C° 0.1 mm 5 mps 752 mmHg 91%
02:00 +12°C° 0 mm 4 mps 752 mmHg 91%
03:00 +12°C° 0 mm 4 mps 752 mmHg 91%
04:00 +12°C° 0 mm 4 mps 752 mmHg 91%
05:00 +12°C° 0 mm 4 mps 752 mmHg 92%
06:00 +13°C° 0 mm 4 mps 753 mmHg 93%
07:00 +13°C° 0 mm 3 mps 753 mmHg 94%
08:00 +13°C° 0 mm 4 mps 753 mmHg 94%
09:00 +13°C° 0 mm 4 mps 753 mmHg 94%
10:00 +13°C° 0 mm 4 mps 753 mmHg 94%
11:00 +14°C° 0 mm 4 mps 753 mmHg 93%
12:00 +14°C° 0 mm 4 mps 752 mmHg 92%
13:00 +14°C° 0 mm 5 mps 752 mmHg 91%
14:00 +14°C° 0 mm 5 mps 752 mmHg 91%
15:00 +14°C° 0 mm 4 mps 752 mmHg 92%
16:00 +14°C° 0 mm 4 mps 752 mmHg 92%
17:00 +14°C° 0 mm 4 mps 752 mmHg 92%
18:00 +14°C° 0 mm 4 mps 752 mmHg 91%
19:00 +14°C° 0 mm 4 mps 753 mmHg 91%
20:00 +15°C° 0 mm 4 mps 753 mmHg 90%
21:00 +15°C° 0 mm 4 mps 753 mmHg 89%
22:00 +15°C° 0 mm 4 mps 753 mmHg 89%
23:00 +15°C° 0 mm 4 mps 753 mmHg 88%

3 November, Tuesday

Time Temperature Precipitation Wind Pressure Humidity
00:00 +15°C° 0 mm 4 mps 753 mmHg 88%
01:00 +15°C° 0 mm 4 mps 753 mmHg 87%
02:00 +14°C° 0 mm 4 mps 753 mmHg 88%
03:00 +14°C° 0 mm 4 mps 753 mmHg 88%
04:00 +14°C° 0 mm 4 mps 754 mmHg 89%
05:00 +14°C° 0 mm 4 mps 754 mmHg 86%
06:00 +14°C° 0 mm 4 mps 755 mmHg 82%
07:00 +13°C° 0 mm 5 mps 755 mmHg 79%
08:00 +13°C° 0 mm 5 mps 756 mmHg 76%
09:00 +12°C° 0 mm 5 mps 757 mmHg 72%
10:00 +12°C° 0 mm 5 mps 758 mmHg 69%
11:00 +12°C° 0 mm 5 mps 758 mmHg 65%
12:00 +13°C° 0 mm 5 mps 759 mmHg 62%
13:00 +13°C° 0 mm 5 mps 759 mmHg 59%
14:00 +12°C° 0 mm 4 mps 759 mmHg 62%
15:00 +11°C° 0 mm 3 mps 760 mmHg 65%
16:00 +11°C° 0 mm 3 mps 760 mmHg 68%
17:00 +10°C° 0 mm 2 mps 760 mmHg 69%
18:00 +9°C° 0 mm 2 mps 760 mmHg 71%
19:00 +9°C° 0 mm 2 mps 761 mmHg 73%
20:00 +10°C° 0 mm 1 mps 761 mmHg 72%
21:00 +10°C° 0 mm 1 mps 761 mmHg 72%
22:00 +10°C° 0 mm 1 mps 761 mmHg 71%
23:00 +10°C° 0 mm 1 mps 761 mmHg 72%

4 November, Wednesday

Time Temperature Precipitation Wind Pressure Humidity
00:00 +9°C° 0 mm 1 mps 761 mmHg 72%
01:00 +8°C° 0 mm 0 mps 761 mmHg 72%
02:00 +9°C° 0 mm 1 mps 761 mmHg 74%
03:00 +9°C° 0 mm 1 mps 761 mmHg 76%
04:00 +8°C° 0 mm 2 mps 761 mmHg 78%
05:00 +8°C° 0.2 mm 2 mps 762 mmHg 80%
06:00 +8°C° 0.2 mm 2 mps 762 mmHg 83%
07:00 +7°C° 0.2 mm 2 mps 762 mmHg 85%
08:00 +7°C° 0.2 mm 2 mps 762 mmHg 85%
09:00 +8°C° 0.2 mm 1 mps 763 mmHg 85%
10:00 +8°C° 0.2 mm 1 mps 763 mmHg 85%
11:00 +9°C° 0.1 mm 1 mps 763 mmHg 84%
12:00 +9°C° 0.1 mm 1 mps 763 mmHg 83%
13:00 +9°C° 0.1 mm 1 mps 763 mmHg 81%
14:00 +9°C° 0 mm 1 mps 764 mmHg 83%
15:00 +9°C° 0 mm 1 mps 764 mmHg 84%
16:00 +8°C° 0 mm 1 mps 764 mmHg 86%
17:00 +8°C° 0 mm 1 mps 764 mmHg 87%
18:00 +8°C° 0 mm 1 mps 765 mmHg 89%
19:00 +7°C° 0 mm 1 mps 765 mmHg 90%
20:00 +7°C° 0 mm 1 mps 766 mmHg 90%
21:00 +7°C° 0 mm 1 mps 766 mmHg 90%
22:00 +7°C° 0 mm 1 mps 767 mmHg 90%
23:00 +6°C° 0 mm 1 mps 767 mmHg 90%

5 November, Thursday

Time Temperature Precipitation Wind Pressure Humidity
00:00 +5°C° 0 mm 0 mps 767 mmHg 90%
01:00 +5°C° 0 mm 0 mps 768 mmHg 90%
02:00 +5°C° 0 mm 0 mps 768 mmHg 90%
03:00 +4°C° 0 mm 0 mps 768 mmHg 90%
04:00 +4°C° 0 mm 0 mps 768 mmHg 91%
05:00 +4°C° 0 mm 0 mps 769 mmHg 91%
06:00 +4°C° 0 mm 0 mps 769 mmHg 91%
07:00 +4°C° 0 mm 0 mps 769 mmHg 91%
08:00 +5°C° 0 mm 0 mps 770 mmHg 87%
09:00 +6°C° 0 mm 0 mps 770 mmHg 82%
10:00 +7°C° 0 mm 0 mps 770 mmHg 78%
11:00 +8°C° 0 mm 0 mps 770 mmHg 75%
12:00 +9°C° 0 mm 0 mps 770 mmHg 71%
13:00 +10°C° 0 mm 1 mps 770 mmHg 67%
14:00 +10°C° 0 mm 1 mps 770 mmHg 71%
15:00 +9°C° 0 mm 1 mps 770 mmHg 74%
16:00 +8°C° 0 mm 1 mps 770 mmHg 77%
17:00 +8°C° 0 mm 1 mps 771 mmHg 80%
18:00 +7°C° 0 mm 1 mps 771 mmHg 82%
19:00 +7°C° 0 mm 1 mps 771 mmHg 85%
20:00 +6°C° 0 mm 1 mps 771 mmHg 86%
21:00 +6°C° 0 mm 1 mps 771 mmHg 87%
22:00 +6°C° 0 mm 1 mps 772 mmHg 88%
23:00 +5°C° 0 mm 1 mps 771 mmHg 89%
Show more